Wetbulb
56.44 56.22 56.92 56.76 57.16 56.86 56.54 56.11 56.28 56.68 56.35 56.32 56.34 56.67 56.87 57.03 57.24 57.52 57.92 58.01 57.59 57.20 57.65 59.61 60.10 59.85 57.43 54.49 55.75 66.08 73.79 73.60 67.12 60.46 57.08 57.03 57.49 55.82 53.69 58.21 57.13 58.29 59.41 61.82 63.08 63.29 63.78
55.89 55.75 55.77 56.15 56.40 56.10 55.97 55.85 55.80 56.17 56.41 56.13 56.34 56.69 56.88 57.02 57.19 57.44 57.51 57.22 57.03 56.93 57.42 59.96 59.71 58.91 54.23 50.84 60.93 62.71 63.14 62.84 59.83 56.72 56.19 57.54 57.93 57.34 56.29 58.38 56.75 60.93 59.06 61.41 61.48 62.58 64.64
55.29 55.29 55.10 55.11 55.24 55.55 55.60 55.32 55.40 55.86 56.05 56.27 56.28 56.40 56.42 56.68 56.90 56.73 56.96 56.55 56.11 56.45 57.41 59.77 59.28 58.86 56.58 53.05 60.60 63.66 60.00 57.45 58.39 56.75 55.37 58.87 60.40 56.22 56.57 56.46 61.67 61.27 56.73 59.41 60.91 61.67 62.76
55.11 54.94 54.71 55.16 55.35 55.33 55.30 55.47 55.48 55.99 56.01 56.03 56.01 56.10 56.05 56.23 56.43 56.31 55.88 55.65 55.70 56.67 57.61 59.85 59.37 57.60 51.70 61.24 61.46 60.59 60.61 57.83 58.04 57.72 57.82 59.63 60.24 56.85 56.40 57.43 59.76 56.68 55.42 51.40 58.63 60.48 63.00
55.09 54.37 54.51 55.66 55.70 55.38 55.42 55.52 55.58 55.53 55.50 55.60 55.70 55.73 55.64 55.62 55.55 55.18 54.63 54.87 56.43 58.36 59.42 59.99 56.80 55.20 56.07 66.03 60.21 60.59 61.13 57.59 55.09 54.89 57.20 61.11 58.28 55.88 57.82 52.28 50.76 53.34 49.10 53.44 56.11 59.50 59.70
55.28 55.46 55.66 55.53 55.08 55.14 55.06 55.22 55.11 55.16 55.24 55.17 55.15 55.13 54.98 54.90 54.79 54.16 53.86 54.79 57.94 59.51 60.42 62.08 60.80 54.79 59.12 60.42 58.34 59.62 61.48 60.06 54.43 54.18 54.85 54.69 53.95 53.13 52.13 48.36 45.67 49.29 50.56 54.82 54.84 58.10 58.59
56.02 55.76 55.68 55.07 55.01 54.84 54.85 54.84 54.91 54.90 55.30 55.15 55.19 54.84 54.61 54.37 53.89 53.30 51.92 51.11 54.36 57.45 60.34 58.39 56.44 57.05 58.36 61.55 61.78 57.84 60.60 58.37 53.71 51.44 48.84 52.17 50.80 48.89 51.27 52.20 52.82 55.29 54.16 54.86 57.96 59.42 57.87
55.99 55.86 55.28 55.13 54.89 55.09 55.02 54.85 54.54 54.67 54.97 54.93 54.72 54.53 54.20 53.98 53.24 52.76 51.08 49.70 52.50 55.90 52.89 58.13 60.68 61.34 62.49 62.58 57.75 57.96 60.01 54.48 50.81 48.69 50.69 49.84 49.84 54.85 56.44 55.32 54.34 53.52 55.38 54.25 57.37 60.27 57.77
55.77 55.51 55.10 54.90 54.94 54.85 54.76 54.53 54.36 54.15 54.35 54.25 54.19 54.12 53.83 53.32 52.48 52.69 53.65 55.06 59.98 59.61 51.83 55.36 58.36 58.07 57.79 59.66 56.60 54.91 55.82 54.40 49.90 48.50 49.50 48.77 53.52 57.65 55.67 53.15 52.63 51.72 49.77 53.28 55.11 59.24 59.67
55.55 55.18 54.95 54.83 54.74 54.62 54.49 54.26 54.21 54.15 54.02 53.74 54.00 53.90 53.26 52.36 50.91 51.13 49.58 55.29 58.34 58.51 46.12 50.44 53.84 57.17 58.14 58.39 54.12 59.03 57.09 54.31 51.23 48.65 50.38 51.02 55.63 55.11 53.35 52.17 52.74 46.52 53.84 53.53 53.54 55.36 49.35
55.10 55.08 54.85 54.74 54.56 54.41 54.11 54.13 54.04 54.00 53.49 53.69 53.98 53.69 52.48 51.93 48.14 49.50 53.35 57.03 57.80 55.80 38.45 54.56 54.50 59.01 57.51 54.89 55.60 55.00 57.64 54.33 50.05 50.51 50.26 50.67 52.59 52.63 51.93 52.72 53.81 50.13 54.17 52.11 51.54 48.72 48.10
55.06 55.06 54.91 54.80 54.74 54.40 54.25 53.98 53.86 53.65 53.38 53.55 53.53 53.05 52.41 50.81 49.82 52.43 55.72 55.26 53.82 44.45 41.22 51.98 54.36 53.45 53.54 54.47 55.47 56.41 54.58 55.26 55.25 51.92 52.29 52.42 55.92 53.99 53.69 55.51 55.00 55.27 51.34 51.03 48.94 45.44 40.41
54.80 54.72 54.78 54.75 54.54 54.47 54.41 53.98 53.92 53.50 53.28 52.95 52.25 51.47 50.61 51.17 46.75 52.16 52.18 51.49 43.79 40.64 52.76 50.82 50.55 52.89 52.03 51.39 53.43 53.92 51.07 49.62 47.65 44.31 46.05 51.07 51.76 53.45 54.22 50.44 52.65 51.03 47.68 41.91 40.44 40.24 40.39
54.28 54.49 54.36 54.25 53.86 54.12 54.22 54.10 53.96 53.59 53.18 52.39 50.79 50.04 50.60 52.60 51.20 51.36 50.33 45.50 39.81 48.60 48.39 53.18 52.58 52.32 49.94 52.17 52.15 52.22 49.90 47.91 50.44 48.78 46.22 45.22 44.45 50.74 53.52 49.83 48.22 48.34 47.46 43.29 38.91 39.87 44.29
54.07 53.87 53.95 53.69 53.77 53.96 53.98 53.81 53.55 53.50 52.93 51.88 50.22 52.34 51.97 55.45 54.83 53.67 47.51 40.48 42.76 47.96 51.97 51.53 52.58 50.92 49.09 52.13 51.82 50.42 49.48 48.68 49.76 50.09 45.08 45.15 46.20 53.36 54.15 54.12 52.59 49.31 46.47 50.20 44.68 47.22 42.72
53.30 53.16 53.21 53.47 53.69 53.79 53.91 53.69 53.63 53.47 52.89 51.36 48.51 49.99 52.11 55.35 57.70 52.86 45.39 41.37 46.82 51.19 52.24 52.04 47.25 50.29 49.03 49.84 49.84 48.42 48.63 51.61 50.80 52.39 52.32 48.63 44.49 51.39 53.48 53.75 53.69 50.99 52.75 46.01 43.99 38.90 38.50
53.20 52.62 52.52 53.16 53.46 53.69 53.85 53.81 53.63 53.32 52.33 51.46 49.08 49.64 56.61 57.47 58.44 50.52 41.76 43.59 48.21 51.66 52.21 49.59 48.25 48.36 50.81 51.08 50.05 48.11 48.39 51.96 52.82 51.98 52.89 51.02 46.97 49.40 52.15 48.95 48.47 49.03 47.49 48.31 46.66 44.88 39.82
52.24 52.46 52.77 52.85 53.05 53.22 53.38 53.46 53.26 52.29 51.49 49.54 48.64 44.62 56.16 55.98 49.31 49.98 45.63 46.55 48.19 50.27 52.47 51.54 51.91 50.86 51.65 53.06 51.60 49.05 48.44 51.16 54.36 53.01 49.53 51.92 47.70 47.15 48.95 52.87 54.38 51.49 48.96 49.22 44.08 42.79 45.33
52.19 51.78 51.83 52.43 52.68 52.89 53.07 52.99 52.56 51.88 51.96 47.28 44.17 47.19 55.02 56.02 46.16 47.53 49.83 48.08 48.89 49.21 50.11 50.59 50.75 52.16 54.18 51.69 49.12 52.93 51.91 55.01 54.80 52.81 50.45 52.05 48.95 44.52 47.65 50.24 52.35 50.39 50.69 49.46 49.87 46.55 43.06
52.18 51.55 51.30 51.20 51.99 52.85 52.72 52.39 51.84 51.79 51.92 49.06 46.00 45.62 51.69 52.49 53.03 49.97 48.56 49.12 48.75 52.42 51.25 52.25 51.82 54.44 53.64 50.95 52.58 51.22 53.29 55.77 55.35 54.08 60.35 57.71 48.16 47.05 43.78 48.28 50.86 48.65 51.05 50.67 46.98 42.91 43.76
51.69 51.69 51.08 50.95 50.89 51.27 52.31 52.14 51.83 51.84 51.79 49.30 48.41 47.72 50.17 45.46 47.36 47.12 49.83 51.09 48.33 48.83 53.01 53.14 51.02 53.12 52.20 49.42 51.04 51.27 54.73 56.86 55.81 59.01 57.23 53.51 46.92 48.35 49.38 51.45 51.31 52.23 51.72 50.81 47.35 47.02 45.69
51.29 51.59 51.31 50.93 50.82 50.95 51.41 52.01 51.89 51.90 51.60 49.69 48.22 45.20 46.49 43.52 47.29 49.64 49.71 49.95 51.17 50.01 53.09 53.33 51.80 53.86 53.54 51.61 53.40 51.81 54.23 54.28 55.18 53.90 53.71 53.61 48.30 49.64 47.15 51.77 51.23 49.74 52.10 52.80 52.59 51.06 49.37
50.57 50.89 51.19 51.14 50.80 50.76 50.72 51.51 51.91 51.70 51.43 47.77 49.86 51.74 45.91 43.60 44.57 45.37 48.25 48.54 51.86 51.95 55.27 56.14 54.90 54.00 53.05 55.27 56.80 55.40 55.78 56.78 54.41 54.80 52.41 51.34 50.73 46.78 43.14 48.70 49.03 45.97 49.85 50.95 51.92 53.24 52.28
50.84 50.99 51.14 51.10 50.96 50.62 50.58 50.95 51.53 51.82 51.97 49.58 48.23 48.43 44.71 41.27 45.76 46.70 47.33 49.29 52.46 54.15 51.91 54.10 55.83 54.60 55.94 57.50 58.69 57.26 55.96 56.15 56.66 56.03 56.42 52.69 51.74 47.97 43.88 46.79 39.71 48.16 53.92 54.96 53.99 55.09 55.41
50.92 51.03 51.12 51.18 50.83 50.68 50.47 50.81 50.83 51.76 51.85 49.75 49.55 48.34 45.65 39.02 43.84 45.96 46.17 46.68 49.81 52.09 54.31 55.04 56.68 56.86 57.34 54.91 52.42 50.91 49.74 51.27 53.95 56.04 55.58 54.75 50.80 47.15 43.95 42.51 46.17 51.50 53.46 54.00 52.31 51.31 56.47
50.90 50.64 50.81 50.94 51.12 51.10 50.76 50.72 50.78 51.62 51.64 50.80 49.34 51.30 48.88 42.00 43.47 47.16 44.57 47.27 45.65 46.74 50.02 54.12 58.14 58.20 56.25 51.21 50.98 44.71 46.04 50.52 49.75 51.26 55.43 55.15 53.79 48.87 45.22 41.84 41.55 48.91 56.35 58.81 56.91 48.04 57.15
50.54 50.58 50.62 50.56 50.65 50.74 50.91 50.79 51.06 51.02 51.53 51.05 48.95 51.43 49.25 42.80 46.45 47.24 43.87 42.46 46.97 46.73 47.78 51.13 50.43 53.44 55.37 48.57 45.76 45.85 44.68 52.08 47.26 47.48 49.68 49.23 49.00 45.64 44.80 44.65 47.62 55.25 58.41 58.94 47.15 48.58 57.36
50.14 50.35 50.47 50.33 50.26 50.42 50.62 50.61 50.88 50.87 51.39 51.27 48.77 51.02 49.56 45.91 45.89 48.33 49.28 45.18 45.13 45.16 43.98 48.09 48.96 52.43 51.34 48.08 46.77 46.61 46.79 49.01 48.44 50.76 47.84 49.43 47.11 44.38 47.00 44.37 42.78 57.98 57.92 53.15 54.54 56.96 59.19
49.78 50.24 50.22 50.22 49.98 50.07 50.44 50.89 50.80 50.52 51.13 51.76 46.97 51.10 51.99 48.18 46.99 50.99 51.03 51.60 50.57 50.10 45.75 46.43 46.80 50.58 52.69 49.45 50.22 50.29 47.93 49.13 49.54 45.71 53.82 48.49 51.35 51.27 51.68 51.07 55.96 57.35 54.71 57.71 58.24 56.67 57.54
MSLP
1022.84 1022.50 1022.05 1021.70 1021.29 1020.78 1020.39 1019.96 1019.45 1018.94 1018.32 1017.65 1017.06 1016.48 1015.93 1015.26 1014.47 1013.79 1013.19 1012.61 1012.10 1011.61 1011.20 1010.56 1010.18 1009.81 1009.34 1008.02 1004.02 1001.15 1001.50 1001.59 1002.23 1002.81 1002.73 1002.27 1001.89 1001.49 1000.94 1000.33 999.44 1000.10 1000.81 1001.63 1002.74 1003.84 1005.23
1023.08 1022.72 1022.34 1021.91 1021.47 1021.14 1020.69 1020.08 1019.52 1018.98 1018.39 1017.76 1017.11 1016.44 1015.74 1015.05 1014.38 1013.60 1012.98 1012.39 1011.87 1011.36 1011.00 1010.48 1010.15 1010.02 1009.29 1006.41 1001.21 1000.66 1001.51 1001.94 1001.87 1002.30 1002.22 1001.72 1001.17 1000.69 1000.46 1000.13 999.62 1000.02 1000.47 1001.37 1002.19 1003.17 1004.34
1023.27 1022.93 1022.59 1022.16 1021.77 1021.35 1020.84 1020.31 1019.68 1019.04 1018.42 1017.75 1017.10 1016.40 1015.67 1014.88 1014.08 1013.36 1012.65 1012.04 1011.46 1010.96 1010.67 1010.36 1010.12 1009.69 1008.11 1003.67 1000.53 1000.83 1000.99 1001.34 1001.41 1001.43 1001.74 1001.00 1000.73 1000.78 1000.18 1000.25 999.25 999.95 1000.80 1001.54 1002.23 1002.96 1004.14
1023.21 1022.95 1022.67 1022.25 1021.81 1021.42 1020.94 1020.39 1019.73 1019.09 1018.42 1017.76 1017.04 1016.32 1015.51 1014.72 1013.84 1013.02 1012.20 1011.45 1010.72 1010.20 1010.18 1010.04 1010.03 1009.21 1006.37 1001.17 1000.59 1000.95 1000.60 1001.02 1001.20 1001.06 1000.81 1000.31 1000.03 1000.28 1000.38 999.96 999.41 1000.30 1000.98 1002.07 1002.65 1003.17 1004.32
1023.37 1022.97 1022.63 1022.15 1021.79 1021.33 1020.88 1020.38 1019.80 1019.08 1018.41 1017.69 1016.93 1016.19 1015.40 1014.51 1013.62 1012.75 1011.80 1010.59 1009.60 1009.08 1009.53 1009.73 1009.77 1008.46 1004.37 1000.21 1000.33 999.94 999.71 1000.47 1000.99 1000.97 1000.64 1000.22 1000.14 1000.25 1000.04 1000.38 1000.42 1000.57 1001.40 1002.35 1003.52 1003.03 1003.71
1023.48 1022.97 1022.59 1022.28 1021.69 1021.32 1020.67 1020.12 1019.64 1019.01 1018.31 1017.54 1016.79 1016.01 1015.19 1014.30 1013.38 1012.59 1011.49 1009.55 1008.67 1008.70 1009.09 1008.88 1008.15 1007.20 1003.19 1000.07 999.48 999.57 999.36 999.75 1000.72 1000.87 1000.82 1000.64 1000.55 1000.27 1000.41 1000.86 1000.78 1000.94 1001.42 1002.26 1002.67 1003.45 1003.64
1023.45 1023.03 1022.56 1022.21 1021.64 1021.09 1020.69 1019.94 1019.34 1018.86 1018.24 1017.50 1016.64 1015.77 1014.91 1013.92 1013.00 1012.70 1011.64 1009.77 1008.67 1008.22 1007.04 1005.82 1004.43 1003.23 1000.63 999.23 999.08 999.22 999.28 999.69 1000.34 1000.76 1001.04 1000.63 1000.94 1000.66 1000.45 1000.13 1000.05 1000.12 1000.67 1001.72 1002.82 1002.86 1003.56
1023.63 1023.16 1022.54 1022.08 1021.50 1020.93 1020.42 1019.87 1019.12 1018.55 1018.03 1017.35 1016.52 1015.63 1014.64 1013.53 1012.28 1011.85 1012.24 1010.19 1006.31 1004.76 1003.98 1002.96 1001.88 1000.87 999.69 999.03 999.01 998.67 998.81 999.58 1000.10 1000.56 1000.82 1000.96 1000.66 1000.23 999.87 999.74 999.43 999.47 1000.43 1000.62 1001.01 1002.23 1003.03
1023.50 1023.01 1022.59 1022.06 1021.43 1020.98 1020.34 1019.67 1018.97 1018.20 1017.71 1017.06 1016.29 1015.47 1014.45 1013.13 1011.41 1010.51 1009.84 1007.61 1004.93 1004.45 1003.99 1000.91 1000.25 999.34 998.19 998.05 997.72 997.96 998.31 998.99 999.73 1000.29 1000.39 1000.49 1000.25 999.75 999.55 999.06 998.91 998.95 999.52 1000.09 1000.51 1001.80 1002.77
1023.38 1022.93 1022.40 1021.87 1021.36 1020.84 1020.16 1019.48 1018.82 1017.96 1017.28 1016.74 1016.05 1015.29 1014.53 1013.20 1010.70 1010.12 1008.06 1005.85 1004.91 1003.40 1002.84 998.97 997.14 996.88 997.32 997.03 996.80 997.14 997.79 998.42 999.04 999.71 1000.06 1000.05 999.53 999.12 998.91 998.68 998.20 998.41 998.57 998.89 1000.19 1001.30 1003.70
1023.21 1022.75 1022.29 1021.69 1021.21 1020.76 1020.03 1019.26 1018.61 1017.69 1016.97 1016.40 1015.72 1015.04 1014.51 1014.61 1013.07 1010.57 1006.86 1006.00 1005.21 1003.83 1002.42 995.74 994.88 994.32 995.30 996.30 996.50 996.43 997.16 997.86 998.33 998.87 999.52 999.07 998.67 998.23 997.97 997.64 997.57 998.02 998.32 999.06 999.97 1001.36 1002.09
1023.08 1022.61 1022.14 1021.64 1021.06 1020.57 1019.99 1019.11 1018.38 1017.41 1016.62 1016.00 1015.07 1014.57 1014.40 1012.69 1012.67 1008.84 1007.66 1006.42 1005.55 1004.81 1000.70 995.62 993.94 994.50 995.70 996.07 996.23 996.26 996.88 997.59 997.90 998.51 998.56 998.30 997.70 997.46 997.21 997.02 997.18 997.73 998.49 999.51 1000.23 1001.52 1002.36
1023.06 1022.57 1022.00 1021.50 1020.99 1020.47 1019.72 1018.89 1018.04 1017.16 1016.18 1015.51 1014.34 1013.43 1013.92 1013.38 1009.77 1007.18 1007.72 1006.66 1005.86 1003.49 999.17 995.64 994.30 994.27 995.16 995.63 996.01 996.18 996.70 997.47 997.67 998.32 998.05 997.89 997.28 996.68 996.47 996.86 997.18 997.81 999.23 1000.61 1001.89 1002.42 1002.55
1022.88 1022.41 1021.88 1021.39 1020.86 1020.23 1019.70 1018.77 1017.74 1016.81 1015.55 1014.76 1013.59 1011.99 1010.09 1009.10 1008.18 1009.14 1008.46 1007.28 1005.11 1001.72 999.20 995.39 996.08 994.54 994.81 995.23 995.65 995.91 996.33 997.04 997.39 997.92 998.12 997.84 997.18 996.32 995.74 996.20 997.20 998.06 999.28 1000.72 1001.97 1002.69 1002.40
1022.73 1022.23 1021.75 1021.25 1020.77 1020.05 1019.36 1018.53 1017.41 1016.51 1015.19 1014.10 1012.66 1009.81 1008.11 1005.53 1006.81 1007.57 1007.81 1006.30 1003.23 1000.85 998.18 997.26 996.08 995.39 994.73 994.51 994.94 995.59 995.71 996.20 996.74 997.01 997.64 997.37 996.84 995.75 995.40 995.42 996.40 997.70 998.58 999.57 1001.34 1001.88 1002.24
1022.48 1022.04 1021.50 1020.97 1020.40 1019.96 1019.17 1018.29 1017.30 1016.29 1015.13 1013.55 1012.78 1009.57 1005.47 1003.36 1005.05 1006.43 1006.50 1004.13 1001.76 999.63 998.63 998.00 996.81 995.70 995.15 993.85 994.14 994.65 994.90 995.15 995.67 996.05 996.37 996.55 996.89 995.46 995.02 995.22 995.72 996.66 997.92 999.58 1000.96 1002.49 1002.62
1022.37 1021.99 1021.40 1020.81 1020.31 1019.47 1019.07 1018.29 1017.24 1016.16 1015.08 1013.04 1012.13 1008.22 1001.71 1002.07 1004.01 1004.99 1004.17 1002.45 1000.76 999.29 999.05 998.47 996.96 995.44 994.52 993.67 993.06 993.58 993.83 993.94 994.36 995.06 995.32 995.81 996.64 995.26 994.93 994.90 995.58 996.53 997.52 999.08 1000.51 1001.75 1002.35
1022.15 1021.94 1021.48 1020.97 1020.14 1019.57 1019.00 1018.34 1017.47 1016.57 1015.31 1013.71 1011.69 1007.52 1001.63 1000.99 1003.28 1003.17 1002.55 1001.43 1000.09 998.78 998.19 997.06 996.23 995.15 994.20 993.52 993.29 992.46 992.48 992.35 992.88 993.74 994.24 994.72 995.48 995.73 994.72 994.32 994.76 995.65 996.86 998.41 1000.32 1001.40 1001.53
1021.83 1021.57 1021.20 1020.65 1020.15 1019.45 1018.97 1018.48 1017.67 1016.96 1016.46 1015.79 1012.84 1007.68 1002.44 1001.78 1001.90 1002.03 1001.36 1000.43 999.30 998.42 997.44 996.48 995.63 994.49 993.63 993.39 993.46 992.67 991.67 991.08 991.56 992.47 992.98 993.91 995.00 995.77 995.17 994.66 994.30 995.17 996.24 997.29 998.47 999.70 1001.04
1021.45 1021.12 1020.86 1020.57 1020.08 1019.52 1018.90 1018.14 1017.65 1016.89 1016.44 1016.25 1013.24 1008.02 1003.43 1001.84 1001.37 1001.33 1001.00 999.80 998.30 997.23 996.57 995.82 995.05 994.02 993.65 993.37 993.10 992.69 991.76 990.68 990.47 991.25 991.80 993.16 994.17 994.88 994.78 994.15 994.30 995.01 995.47 996.37 997.53 999.32 1000.10
1021.25 1021.09 1020.62 1020.22 1020.01 1019.47 1018.73 1018.25 1017.33 1016.43 1015.46 1015.67 1012.69 1008.67 1006.85 1004.77 1003.20 1002.94 1001.58 1000.00 998.29 996.66 995.71 994.96 994.56 993.92 994.43 993.93 993.50 992.91 991.82 990.85 989.76 990.24 991.52 992.64 994.05 994.33 994.16 993.94 993.74 994.23 994.79 995.57 996.76 997.72 999.17
1020.72 1020.45 1020.24 1019.91 1019.63 1019.22 1018.61 1018.15 1017.47 1016.29 1014.69 1014.20 1011.74 1010.36 1008.94 1007.24 1005.09 1003.28 1001.39 999.97 998.13 996.64 996.19 995.32 995.53 994.08 994.33 994.59 994.90 994.03 993.41 992.34 991.47 990.90 991.21 992.11 993.84 994.23 994.42 994.14 994.12 994.35 994.53 995.47 996.01 996.67 997.16
1020.46 1020.21 1019.78 1019.58 1019.29 1019.02 1018.43 1018.02 1017.44 1016.71 1015.82 1014.30 1012.83 1011.44 1010.32 1007.61 1005.65 1004.58 1002.00 1000.41 998.24 996.92 996.20 996.57 996.56 994.59 994.22 995.26 995.12 993.83 993.58 993.07 992.34 992.03 992.16 992.61 994.03 994.82 995.38 994.86 994.75 994.85 994.41 994.83 995.52 995.53 995.98
1019.92 1019.66 1019.33 1019.19 1018.82 1018.55 1018.23 1018.05 1017.38 1016.85 1016.78 1016.47 1014.94 1013.46 1011.09 1008.79 1007.00 1005.59 1003.40 1001.20 999.22 998.74 997.71 997.16 996.85 996.18 995.62 994.90 993.91 993.56 993.23 992.84 992.56 992.95 992.94 993.84 994.78 995.66 996.56 996.31 995.74 994.67 994.25 994.74 996.02 996.67 996.59
1019.31 1019.07 1018.89 1018.60 1018.46 1018.18 1017.98 1017.71 1017.16 1016.70 1016.50 1015.99 1014.85 1013.64 1011.51 1010.07 1008.09 1005.91 1004.08 1002.54 1000.72 999.83 998.09 998.43 997.49 996.27 995.92 995.55 995.18 994.46 994.40 994.46 993.88 994.39 994.84 994.61 996.21 998.32 998.54 998.20 996.91 995.61 995.08 995.71 996.06 997.86 997.21
1018.70 1018.55 1018.40 1018.17 1017.98 1017.81 1017.55 1017.32 1016.91 1016.49 1016.13 1015.63 1014.08 1013.05 1011.97 1010.58 1007.68 1006.59 1005.53 1003.96 1002.36 1001.38 999.81 998.70 997.56 996.89 996.60 997.06 996.79 996.30 995.59 995.62 995.76 995.66 995.97 996.36 997.17 998.88 1000.58 1000.73 999.50 997.14 996.18 996.24 996.47 998.18 997.91
1018.12 1018.03 1017.86 1017.76 1017.59 1017.30 1017.08 1016.92 1016.57 1016.18 1015.89 1015.54 1014.00 1013.00 1012.42 1010.64 1007.98 1007.33 1006.35 1005.56 1004.25 1003.66 1002.01 1000.50 1000.25 998.46 997.34 997.80 997.90 997.17 996.65 995.89 996.95 997.29 998.07 998.81 999.24 1000.11 1001.49 1001.96 1000.98 999.39 998.77 996.26 999.00 998.89 998.28
1017.51 1017.45 1017.29 1017.28 1017.15 1016.88 1016.67 1016.47 1016.28 1015.98 1015.63 1015.24 1013.80 1012.75 1012.45 1010.79 1008.34 1007.20 1006.46 1005.99 1004.97 1004.38 1004.11 1002.68 1000.80 999.83 999.24 999.04 998.68 998.28 997.33 996.81 996.38 996.72 998.14 999.94 1000.90 1001.01 1001.20 1002.47 1002.29 1000.90 999.67 999.07 999.98 999.05 998.90
1016.94 1016.76 1016.74 1016.78 1016.62 1016.41 1016.23 1016.05 1016.01 1015.78 1015.38 1015.01 1013.66 1012.25 1011.88 1010.71 1008.29 1006.85 1006.21 1005.67 1005.19 1004.74 1004.52 1003.78 1003.19 1002.50 1001.67 1001.20 1000.49 999.32 997.94 997.63 997.79 999.12 999.75 1001.29 1003.23 1002.41 1002.31 1003.38 1003.81 1004.96 1002.57 1001.02 1000.07 1000.04 1000.14
Wind_Speed
20 20 20 20 20 20 21 22 22 21 22 23 23 23 23 24 25 24 23 22 22 21 19 17 12 10 6 3 13 3 7 10 7 6 10 12 13 9 12 7 6 9 11 19 23 20 17
19 20 20 21 21 21 22 23 23 22 22 23 23 23 23 23 23 24 23 22 21 21 18 14 8 7 3 7 8 12 9 7 8 8 9 14 10 11 12 14 6 3 8 19 15 18 19
19 20 20 20 21 22 22 22 23 23 23 23 23 23 23 24 25 25 24 23 23 22 16 10 7 4 6 19 2 7 13 8 9 9 11 14 15 8 11 11 10 6 8 13 15 20 20
19 19 20 20 19 20 21 22 22 22 22 23 23 24 25 25 26 25 25 25 25 22 14 9 5 4 10 10 16 12 11 9 10 10 14 13 13 12 8 8 5 6 8 7 10 12 13
18 20 19 18 19 19 19 20 21 22 22 23 24 25 25 26 26 26 26 30 27 16 9 5 5 3 11 10 5 11 9 11 10 10 12 16 14 10 9 5 3 6 6 15 6 6 6
15 16 17 17 18 19 19 20 21 22 22 23 24 25 26 26 26 26 28 30 6 1 5 7 9 4 8 9 8 11 7 9 10 10 13 11 7 6 5 2 7 8 6 16 12 10 7
17 17 17 17 18 18 19 19 21 22 23 23 24 25 26 27 27 22 17 8 3 1 5 10 9 10 18 10 8 9 12 10 11 7 9 9 3 7 12 12 12 11 10 11 7 9 8
16 16 17 18 19 19 19 20 20 22 23 24 24 25 27 29 30 25 6 5 8 9 17 15 19 23 22 22 11 14 13 12 11 10 8 7 9 14 17 18 12 10 12 12 14 17 10
16 17 17 18 19 19 19 20 21 21 23 24 25 25 26 29 34 10 7 13 15 20 7 24 23 22 20 17 13 12 11 14 9 10 12 12 11 19 21 18 12 11 7 13 13 18 13
15 16 17 19 19 20 20 21 22 23 24 24 24 25 24 29 7 8 9 11 17 14 4 15 11 22 20 18 9 16 14 13 7 16 15 12 14 22 21 16 11 7 5 5 4 17 10
15 16 18 18 19 21 21 21 22 23 25 26 25 24 23 12 11 7 8 17 19 6 5 10 16 10 10 18 10 12 17 13 14 12 10 15 17 19 20 16 7 8 7 6 8 5 5
15 17 18 18 19 21 22 22 23 23 24 27 27 24 22 11 6 14 15 19 3 2 11 9 11 16 18 17 15 10 19 13 11 13 16 13 15 15 16 12 9 6 4 5 6 1 2
16 17 18 18 19 21 22 23 24 25 25 28 29 27 16 9 9 1 11 6 1 6 8 7 17 21 20 10 19 19 21 19 17 12 12 16 20 16 12 9 8 4 4 2 4 2 8
16 16 17 18 19 20 22 23 24 26 27 30 31 34 12 12 12 12 3 1 7 12 25 18 18 13 17 17 16 19 18 17 20 17 7 9 14 17 16 10 11 8 10 7 7 5 10
15 16 17 18 20 20 21 23 24 27 29 34 33 5 7 9 15 6 1 7 7 14 17 20 20 16 11 18 12 18 14 19 19 20 14 10 12 13 11 6 11 11 6 10 3 4 3
15 16 18 18 19 21 22 23 24 26 29 36 9 6 10 9 18 8 3 9 11 23 23 22 23 19 19 20 19 21 19 21 19 21 18 11 7 16 11 10 14 12 8 3 4 2 6
16 17 17 18 19 19 22 23 24 26 29 35 4 6 10 14 12 6 9 9 16 22 21 21 25 28 24 8 18 16 21 17 23 22 23 19 7 13 13 10 10 2 5 4 7 7 6
15 16 17 19 18 20 21 22 23 24 26 11 7 5 5 17 7 5 11 8 15 19 20 24 23 25 24 8 8 20 17 22 21 22 23 23 6 11 17 10 13 9 10 10 7 6 2
14 15 17 17 18 18 20 22 22 21 17 8 7 7 8 6 8 10 10 22 25 22 23 26 26 25 23 9 7 9 15 20 21 24 24 15 14 10 7 11 14 15 12 9 6 5 5
15 14 16 17 18 19 19 20 22 21 17 6 6 6 4 2 6 11 14 18 20 22 24 26 26 14 17 11 13 12 14 10 25 24 27 13 8 10 9 11 11 12 15 8 9 5 6
16 16 15 17 18 19 19 21 22 24 23 4 5 5 8 7 9 18 15 16 24 23 19 20 18 7 16 9 12 9 9 9 15 25 21 14 10 8 8 7 5 8 8 8 8 9 8
17 16 15 15 17 18 18 18 21 23 32 5 5 5 6 10 12 13 13 17 22 24 14 8 16 14 22 6 4 6 11 6 4 5 22 14 7 8 4 3 6 6 10 17 17 11 8
17 17 17 15 15 17 19 18 19 19 18 5 6 6 3 7 9 9 10 24 19 22 5 7 19 7 8 6 7 5 7 13 8 3 4 11 7 5 5 2 4 7 5 5 7 13 11
18 18 17 17 15 16 17 18 17 16 12 6 6 9 5 8 9 8 21 24 15 9 7 12 17 4 6 13 9 5 6 10 8 9 5 5 5 5 5 4 7 7 6 3 15 14 14
18 18 17 16 16 15 16 17 17 15 15 7 7 5 4 7 9 14 23 22 18 13 6 11 7 7 10 9 5 4 5 9 7 4 7 6 6 7 5 5 4 5 8 4 6 3 6
18 17 18 17 16 15 15 16 16 15 15 7 11 7 7 5 5 16 17 15 6 14 9 8 7 2 6 2 1 2 1 3 3 5 7 11 9 8 4 6 1 5 4 6 2 4 2
18 17 17 16 17 15 13 15 15 16 15 8 8 8 5 7 12 11 6 10 9 9 6 4 12 6 2 2 2 1 6 1 4 4 3 3 4 7 5 4 8 9 17 5 8 8 3
17 18 16 15 15 15 14 14 15 15 16 8 9 10 4 6 14 8 9 8 10 7 6 10 10 8 6 2 1 3 4 6 4 6 11 7 3 1 4 5 4 21 13 6 4 5 9
17 17 14 14 14 14 14 14 14 13 14 12 6 8 9 5 8 15 16 13 11 6 6 5 4 6 5 5 6 5 4 3 1 5 9 7 5 2 2 6 6 11 5 15 15 9 9
Wind_Direction
12 11 9 10 6 2 1 358 355 353 351 349 347 343 340 336 333 331 329 327 324 326 326 322 321 328 309 243 247 249 99 105 139 167 220 237 254 260 260 292 110 97 105 108 118 128 139
11 10 8 5 5 1 357 354 352 350 347 345 343 340 337 333 331 328 326 323 319 319 321 317 317 328 275 255 247 207 151 152 191 189 219 238 246 251 273 283 115 90 134 126 124 115 112
10 8 7 4 359 355 353 352 349 345 343 341 340 338 335 331 328 326 323 319 315 311 310 303 303 266 257 241 249 163 162 184 204 197 227 238 250 266 284 306 134 180 119 118 104 120 121
5 4 0 356 355 353 349 347 345 342 340 338 337 335 333 330 326 324 321 315 306 300 291 277 271 256 251 259 239 249 204 179 214 231 233 252 250 256 266 295 145 152 127 116 137 115 145
358 357 353 352 348 349 347 344 342 339 337 336 335 333 330 328 325 324 321 312 305 287 255 243 230 208 263 282 213 238 202 178 199 241 249 252 266 252 313 295 234 164 189 129 135 150 138
348 346 346 346 348 342 342 341 340 337 335 333 332 330 327 326 323 325 322 304 277 331 201 213 265 332 248 233 171 222 222 198 185 225 243 242 262 235 283 286 198 190 214 149 148 194 144
340 339 342 338 339 338 336 339 339 336 332 331 330 328 325 323 319 325 337 341 300 157 239 224 189 227 297 247 193 193 213 201 192 211 209 237 220 238 240 249 253 203 178 116 254 184 136
338 336 338 334 335 336 333 333 335 334 330 328 327 326 324 321 315 315 283 243 229 277 303 280 257 241 253 258 229 193 191 188 195 203 201 225 216 240 244 249 230 240 158 183 218 169 122
334 333 332 332 334 331 331 330 329 331 327 325 325 325 325 322 313 298 230 252 294 298 275 275 257 266 249 249 216 185 187 192 186 207 210 213 210 235 242 251 237 241 189 201 175 178 166
333 331 330 334 332 330 330 330 327 327 325 323 322 323 327 331 313 342 283 301 330 332 272 265 219 232 246 239 194 185 200 192 184 204 218 216 230 227 238 245 218 243 261 285 147 156 180
334 333 331 332 332 330 329 328 325 326 325 320 319 320 321 325 300 286 305 334 316 329 282 256 197 173 193 217 194 188 188 205 214 191 202 214 223 225 236 243 217 217 255 216 259 209 187
337 335 332 329 331 330 328 328 325 326 324 316 314 314 321 310 202 245 298 298 281 294 250 280 148 175 181 213 210 199 182 213 233 213 221 232 222 229 226 244 249 216 233 298 246 160 9
335 333 332 334 334 331 329 328 327 326 324 316 312 306 295 269 235 354 347 306 218 227 289 255 152 163 180 183 196 221 182 195 216 205 221 220 236 240 229 196 244 181 131 294 355 341 228
332 333 337 338 334 331 329 329 329 327 325 319 313 305 256 211 221 263 248 250 233 238 239 289 318 177 182 195 193 221 184 192 223 232 212 211 237 231 226 198 196 207 159 157 202 195 240
332 336 337 335 332 332 330 330 332 329 328 320 316 274 258 219 206 204 166 226 209 239 256 258 274 268 201 196 178 206 205 194 208 223 224 197 240 247 216 179 168 228 174 204 211 251 324
332 333 335 334 334 334 332 333 335 333 330 321 308 278 249 207 157 164 185 236 231 244 269 284 282 287 288 201 196 191 223 192 197 221 224 250 209 232 206 180 235 158 167 242 347 223 285
328 330 331 332 334 338 337 338 338 337 334 322 250 277 266 164 145 168 220 224 235 255 277 283 284 291 287 259 199 194 214 191 195 206 226 235 214 249 182 193 201 141 176 180 171 153 194
323 328 331 331 334 337 337 337 339 338 338 351 301 274 315 143 164 205 240 239 255 263 269 274 267 266 274 302 295 201 219 193 189 202 223 224 199 237 203 198 183 196 185 169 129 276 223
314 323 329 329 332 335 335 337 338 339 353 329 292 273 278 241 205 228 237 238 252 255 254 264 270 269 275 270 305 287 235 194 189 195 224 216 232 242 288 213 187 201 221 187 160 129 235
313 317 325 328 329 333 337 338 335 334 335 329 282 294 272 258 258 242 264 272 259 243 252 262 270 278 288 275 268 276 287 257 194 195 215 196 227 169 207 206 177 200 214 194 167 144 229
312 311 316 325 327 330 336 338 337 334 329 284 240 270 356 321 324 326 306 290 273 277 257 252 264 283 290 298 294 279 299 344 220 194 205 199 204 205 221 237 270 220 187 213 217 216 158
306 305 305 313 323 327 333 337 338 341 332 212 303 348 337 290 279 283 279 280 262 265 280 291 328 203 249 326 28 336 356 360 269 282 194 209 203 159 208 240 235 230 211 206 239 225 245
299 303 307 303 312 323 331 334 339 347 350 326 345 337 290 292 306 311 313 313 300 255 259 282 332 254 220 19 269 293 283 282 274 326 246 145 135 111 184 201 333 320 248 220 244 212 196
293 294 297 302 306 313 323 328 334 343 354 313 297 300 292 296 316 334 305 326 347 61 279 303 307 330 19 329 299 308 283 286 313 25 39 75 89 112 152 123 241 238 309 29 84 46 36
295 297 296 295 299 303 312 322 329 334 331 313 291 288 298 298 313 322 333 321 334 334 104 238 272 246 327 352 329 334 6 351 347 299 45 81 88 64 106 189 214 232 265 114 132 7 47
285 289 295 297 293 294 300 313 323 327 329 316 289 253 288 283 247 341 326 356 354 349 345 346 234 263 41 301 229 319 265 124 288 337 39 78 87 102 83 91 9 246 152 105 72 119 72
287 284 288 291 293 298 293 305 318 326 328 323 275 290 278 284 266 328 351 335 340 335 310 346 348 303 4 183 300 304 272 123 316 151 357 350 31 122 124 106 280 337 299 88 60 250 70
282 277 281 285 286 293 295 302 310 321 328 333 287 285 275 293 290 256 313 324 327 5 348 325 318 6 1 14 222 232 228 249 284 161 168 162 173 215 113 94 269 355 313 93 217 59 96
276 274 275 279 283 289 293 294 300 315 325 333 279 330 320 254 278 299 284 276 274 297 300 332 294 5 0 355 14 316 292 306 110 112 306 42 339 59 101 126 114 250 40 358 28 44 22